Location: Erp
(42.9417°N, 1.2009°E)
Time: 14:24:05
(UTC+00:00)

CARTOSAT-1 - Visible Passes

Search period start: 11 April 2026 00:00
Search period end: 21 April 2026 00:00
Orbit: 595 x 596 km, 97.5° (Epoch: 11 April)

Date Brightness Start Highest point End Pass type
(mag) Time Alt. Az. Time Alt. Az. Time Alt. Az.
13 Apr 4.6 18:57:07 10° S 19:01:11 49° W 19:05:17 10° NNW visible
14 Apr 5.1 19:06:54 10° SSW 19:10:49 38° W 19:14:45 10° NNW visible
15 Apr 5.6 19:16:46 10° SSW 19:20:27 30° W 19:24:11 10° NW visible
16 Apr 6.0 19:26:43 10° SSW 19:30:07 24° W 19:33:31 10° NW visible
17 Apr 6.3 19:36:48 10° SW 19:39:47 19° W 19:42:47 10° NW visible
18 Apr 6.4 19:47:04 10° SW 19:49:28 15° W 19:51:52 10° NW visible
19 Apr 6.7 19:57:43 10° WSW 19:59:08 12° W 20:00:36 10° WNW visible
